EW9957 Weather Reports


time (UTC)temp
C
wind
direction
speed
KPH
gust
KPH
rain 1hr
cm
rain 24hr
cm
rain mn
cm
humidity
%
barometer
mb
20260507105547 13 36 0.0 4.8 0.00 0.00 0.00 87 1017.4
20260507105023 13 38 1.6 4.8 0.00 0.00 0.00 88 1017.4
20260507104546 13 38 3.2 4.8 0.00 0.00 0.00 88 1017.3
20260507104021 13 36 1.6 3.2 0.00 0.00 0.00 88 1017.3
20260507103536 13 32 1.6 4.8 0.00 0.00 0.00 88 1017.4
20260507103100 13 37 1.6 6.4 0.00 0.00 0.00 88 1017.5
20260507102553 13 34 1.6 6.4 0.00 0.00 0.00 88 1017.5
20260507102047 13 38 3.2 4.8 0.00 0.00 0.00 88 1017.4
20260507101529 13 36 3.2 4.8 0.00 0.00 0.00 87 1017.4
20260507101024 13 38 1.6 4.8 0.00 0.00 0.00 87 1017.5
20260507100620 13 35 3.2 4.8 0.00 0.00 0.00 87 1017.5
20260507100026 13 35 3.2 4.8 0.00 0.00 0.00 87 1017.5
20260507095603 13 36 1.6 4.8 0.00 0.00 0.00 87 1017.6
20260507095521 13 36 1.6 4.8 0.00 0.00 0.00 87 1017.6
20260507095113 13 35 1.6 4.8 0.00 0.00 0.00 86 1017.6
20260507094516 13 37 3.2 4.8 0.00 0.00 0.00 87 1017.6
20260507094032 13 36 1.6 3.2 0.00 0.00 0.00 87 1017.7
20260507093526 13 35 1.6 3.2 0.00 0.00 0.00 87 1017.9
20260507093106 13 38 0.0 3.2 0.00 0.00 0.00 87 1017.9
20260507093023 13 38 0.0 3.2 0.00 0.00 0.00 87 1017.9
20260507092523 13 36 1.6 3.2 0.00 0.00 0.00 88 1017.9
20260507092017 13 36 0.0 3.2 0.00 0.00 0.00 87 1017.9
20260507091540 13 35 0.0 0.0 0.00 0.00 0.00 88 1017.9
20260507091035 13 32 0.0 0.0 0.00 0.00 0.00 88 1018.0
20260507090551 13 37 0.0 0.0 0.00 0.00 0.00 87 1018.0
20260507090052 13 35 0.0 0.0 0.00 0.00 0.00 87 1018.0
20260507085603 13 36 0.0 0.0 0.00 0.00 0.00 87 1018.0
20260507085520 13 36 0.0 0.0 0.00 0.00 0.00 87 1018.0
20260507085115 13 35 0.0 1.6 0.00 0.00 0.00 87 1018.1
20260507084537 13 35 0.0 1.6 0.00 0.00 0.00 87 1018.2
20260507084031 13 36 0.0 3.2 0.00 0.00 0.00 87 1018.2
20260507083531 13 35 0.0 4.8 0.00 0.00 0.00 87 1018.3
20260507083031 13 38 1.6 4.8 0.00 0.00 0.00 87 1018.3
20260507082526 13 36 0.0 3.2 0.00 0.00 0.00 86 1018.2
20260507082103 13 38 0.0 3.2 0.00 0.00 0.00 86 1018.3
20260507082020 13 38 0.0 3.2 0.00 0.00 0.00 86 1018.3
20260507081523 13 35 1.6 3.2 0.00 0.00 0.00 87 1018.4
20260507081040 13 36 1.6 3.2 0.00 0.00 0.00 87 1018.4
20260507080535 13 36 0.0 0.0 0.00 0.00 0.00 87 1018.5
20260507080056 13 35 0.0 0.0 0.00 0.00 0.00 87 1018.5
20260507075606 13 38 0.0 0.0 0.00 0.00 0.00 86 1018.5
20260507075524 13 38 0.0 0.0 0.00 0.00 0.00 86 1018.5
20260507075040 14 35 0.0 0.0 0.00 0.00 0.00 86 1018.6
20260507074614 14 36 0.0 0.0 0.00 0.00 0.00 87 1018.6
20260507074532 14 36 0.0 0.0 0.00 0.00 0.00 87 1018.6
20260507074047 13 37 0.0 0.0 0.00 0.00 0.00 86 1018.6
20260507073520 13 37 0.0 0.0 0.00 0.00 0.00 86 1018.7
20260507073044 13 35 0.0 0.0 0.00 0.00 0.00 85 1018.7
20260507072518 13 35 0.0 0.0 0.00 0.00 0.00 86 1018.7
20260507072053 13 38 0.0 0.0 0.00 0.00 0.00 85 1018.8
20260507071533 14 35 0.0 0.0 0.00 0.00 0.00 86 1018.8
20260507071107 14 38 0.0 0.0 0.00 0.00 0.00 86 1018.7
20260507070601 13 35 0.0 0.0 0.00 0.00 0.00 85 1018.8
20260507070020 14 36 0.0 0.0 0.00 0.00 0.00 85 1018.7
20260507065516 14 36 0.0 3.2 0.00 0.00 0.00 85 1018.7
20260507065051 14 35 0.0 3.2 0.00 0.00 0.00 85 1018.6
20260507064552 14 35 1.6 3.2 0.00 0.00 0.00 85 1018.7
20260507064107 14 38 0.0 0.0 0.00 0.00 0.00 85 1018.7
20260507064025 14 38 0.0 0.0 0.00 0.00 0.00 85 1018.7
20260507063541 15 36 0.0 1.6 0.00 0.00 0.00 85 1018.7
20260507063023 14 36 0.0 3.2 0.00 0.00 0.00 85 1018.7
20260507062518 14 36 0.0 3.2 0.00 0.00 0.00 85 1018.8
20260507062053 14 38 1.6 3.2 0.00 0.00 0.00 85 1018.7
20260507061514 14 34 0.0 1.6 0.00 0.00 0.00 83 1018.8
20260507061109 14 35 0.0 1.6 0.00 0.00 0.00 84 1018.8
20260507060542 14 38 0.0 0.0 0.00 0.00 0.00 83 1018.8
20260507060106 15 34 0.0 0.0 0.00 0.00 0.00 82 1018.9
20260507055519 15 37 0.0 0.0 0.00 0.00 0.00 83 1018.9
20260507055037 15 36 0.0 0.0 0.00 0.00 0.00 82 1018.9
20260507054518 15 36 0.0 0.0 0.00 0.00 0.00 82 1018.8
20260507054035 15 35 0.0 1.6 0.00 0.00 0.00 81 1018.9
20260507053611 15 34 0.0 3.2 0.00 0.00 0.00 81 1018.9
20260507053529 15 34 0.0 3.2 0.00 0.00 0.00 81 1018.9
20260507053050 15 34 0.0 1.6 0.00 0.00 0.00 81 1018.8
20260507052605 15 38 0.0 0.0 0.00 0.00 0.00 82 1018.7
20260507052523 15 38 0.0 0.0 0.00 0.00 0.00 82 1018.7
20260507052018 15 38 0.0 0.0 0.00 0.00 0.00 81 1018.8
20260507051542 15 35 0.0 0.0 0.00 0.00 0.00 81 1018.7
20260507051017 15 35 0.0 0.0 0.00 0.00 0.00 82 1018.8
20260507050612 16 38 0.0 3.2 0.00 0.00 0.00 82 1018.8
20260507050529 16 38 0.0 3.2 0.00 0.00 0.00 82 1018.8
20260507050032 16 36 0.0 1.6 0.00 0.00 0.00 82 1018.7
20260507045528 15 36 0.0 4.8 0.00 0.00 0.00 83 1018.7
20260507045045 15 38 3.2 4.8 0.00 0.00 0.00 83 1018.6
20260507044546 15 38 3.2 4.8 0.00 0.00 0.00 82 1018.7
20260507044040 16 38 1.6 4.8 0.00 0.00 0.00 82 1018.7
20260507043556 16 36 0.0 6.4 0.00 0.00 0.00 82 1018.7
20260507043513 16 36 0.0 6.4 0.00 0.00 0.00 82 1018.7
20260507043036 16 35 3.2 6.4 0.00 0.00 0.00 83 1018.7
20260507042551 16 36 4.8 9.7 0.00 0.00 0.00 83 1018.7
20260507042047 16 37 4.8 11.3 0.00 0.00 0.00 84 1018.7
20260507041527 16 32 6.4 11.3 0.00 0.00 0.00 84 1018.6
20260507041023 16 36 6.4 8.0 0.00 0.00 0.00 83 1018.6
20260507040558 16 38 4.8 8.0 0.00 0.00 0.00 83 1018.6
20260507040100 16 35 4.8 8.0 0.00 0.00 0.00 82 1018.6
20260507040018 16 35 4.8 8.0 0.00 0.00 0.00 82 1018.6
20260507035514 16 36 4.8 8.0 0.00 0.00 0.00 82 1018.5
20260507035013 16 38 4.8 6.4 0.00 0.00 0.00 82 1018.5
20260507034515 16 38 4.8 9.7 0.00 0.00 0.00 82 1018.4
20260507034031 16 38 6.4 9.7 0.00 0.00 0.00 82 1018.4
20260507033548 16 36 4.8 9.7 0.00 0.00 0.00 82 1018.4
20260507033030 16 36 6.4 8.0 0.00 0.00 0.00 81 1018.3
20260507032547 16 35 4.8 8.0 0.00 0.00 0.00 81 1018.3
20260507032043 16 36 6.4 8.0 0.00 0.00 0.00 79 1018.2
20260507031607 16 35 4.8 6.4 0.00 0.00 0.00 79 1018.1
20260507031056 16 36 3.2 8.0 0.00 0.00 0.00 79 1018.1
20260507031014 16 36 3.2 8.0 0.00 0.00 0.00 79 1018.1
20260507030609 16 37 4.8 9.7 0.00 0.00 0.00 78 1018.1
20260507030527 16 37 4.8 9.7 0.00 0.00 0.00 78 1018.1
20260507030048 17 38 6.4 9.7 0.00 0.00 0.00 78 1018.1
20260507025522 17 36 6.4 9.7 0.00 0.00 0.00 77 1018.1
20260507025039 17 35 4.8 11.3 0.00 0.00 0.00 77 1018.0
20260507024521 17 35 6.4 11.3 0.00 0.00 0.00 76 1017.9
20260507024057 17 36 8.0 11.3 0.00 0.00 0.00 75 1017.9
20260507024014 17 36 8.0 11.3 0.00 0.00 0.00 75 1017.9
20260507023550 17 36 6.4 11.3 0.00 0.00 0.00 74 1017.8
20260507023032 17 35 6.4 12.9 0.00 0.00 0.00 74 1017.8
20260507022549 17 35 4.8 8.0 0.00 0.00 0.00 73 1017.7
20260507022104 17 34 4.8 11.3 0.00 0.00 0.00 72 1017.7
20260507022021 17 34 4.8 11.3 0.00 0.00 0.00 72 1017.7
20260507021607 17 35 8.0 12.9 0.00 0.00 0.00 71 1017.7
20260507021524 17 35 8.0 12.9 0.00 0.00 0.00 71 1017.7
20260507021059 17 35 8.0 12.9 0.00 0.00 0.00 71 1017.6
20260507020613 18 34 9.7 14.5 0.00 0.00 0.00 68 1017.6
20260507020530 18 34 9.7 14.5 0.00 0.00 0.00 68 1017.6
20260507020035 18 34 8.0 16.1 0.00 0.00 0.00 66 1017.6
20260507015548 18 36 8.0 16.1 0.00 0.00 0.00 67 1017.5
20260507015022 18 36 6.4 19.3 0.00 0.00 0.00 67 1017.6
20260507014607 18 36 14.5 19.3 0.00 0.00 0.00 66 1017.5
20260507014020 18 36 8.0 19.3 0.00 0.00 0.00 66 1017.5
20260507013555 18 35 11.3 19.3 0.00 0.00 0.00 66 1017.5
20260507013015 18 34 11.3 17.7 0.00 0.00 0.00 66 1017.5
20260507012552 18 36 12.9 17.7 0.00 0.00 0.00 66 1017.5
20260507012046 18 35 9.7 14.5 0.00 0.00 0.00 66 1017.5
20260507011525 18 35 11.3 20.9 0.00 0.00 0.00 66 1017.5
20260507010517 18 35 9.7 19.3 0.00 0.00 0.00 65 1017.5
20260507010111 18 35 11.3 20.9 0.00 0.00 0.00 65 1017.4
20260507010028 18 35 11.3 20.9 0.00 0.00 0.00 65 1017.4
20260507005523 18 34 14.5 20.9 0.00 0.00 0.00 64 1017.4
20260507005059 18 35 9.7 20.9 0.00 0.00 0.00 65 1017.4
20260507005016 18 35 9.7 20.9 0.00 0.00 0.00 65 1017.4
20260507004541 18 35 16.1 19.3 0.00 0.00 0.00 64 1017.4
20260507004017 18 35 11.3 24.1 0.00 0.00 0.00 63 1017.4
20260507003553 18 34 14.5 24.1 0.00 0.00 0.00 66 1017.3
20260507003015 18 36 11.3 22.5 0.00 0.00 0.00 66 1017.4
20260507002550 18 37 16.1 22.5 0.00 0.00 0.00 67 1017.3
20260507002024 18 35 14.5 22.5 0.00 0.00 0.00 67 1017.3
20260507001526 18 34 12.9 22.5 0.00 0.00 0.00 67 1017.3
20260507001103 18 35 12.9 24.1 0.00 0.00 0.00 68 1017.2
20260507001020 18 35 12.9 24.1 0.00 0.00 0.00 68 1017.2
20260507000515 18 36 16.1 24.1 0.00 0.00 0.00 68 1017.2
20260507000059 19 36 11.3 19.3 0.00 0.00 0.00 67 1017.1
20260506235532 18 36 12.9 19.3 0.00 0.00 0.00 68 1017.1
20260506235107 19 38 12.9 19.3 0.00 0.00 0.00 66 1017.0
20260506234547 19 34 14.5 22.5 0.00 0.00 0.00 66 1017.1
20260506234043 19 35 11.3 24.1 0.00 0.00 0.00 66 1017.0
20260506233517 19 34 16.1 24.1 0.00 0.00 0.00 61 1017.1
20260506233020 19 36 11.3 20.9 0.00 0.00 0.00 64 1017.0
20260506232535 20 36 12.9 22.5 0.00 0.00 0.00 63 1017.1
20260506232030 19 32 12.9 24.1 0.00 0.00 0.00 66 1017.2
20260506231551 18 36 12.9 24.1 0.00 0.00 0.00 67 1017.2
20260506231048 18 36 14.5 24.1 0.00 0.00 0.00 67 1017.3
20260506230523 19 35 16.1 22.5 0.00 0.00 0.00 65 1017.2
20260506230045 18 34 16.1 27.4 0.00 0.00 0.00 68 1017.2
20260506225600 19 34 14.5 24.1 0.00 0.00 0.00 66 1017.3
20260506225518 19 34 14.5 24.1 0.00 0.00 0.00 66 1017.3
20260506225112 19 35 11.3 24.1 0.00 0.00 0.00 67 1017.3
20260506224513 18 36 14.5 25.7 0.00 0.00 0.00 68 1017.3
20260506224108 19 34 14.5 25.7 0.00 0.00 0.00 67 1017.5
20260506223601 18 37 17.7 27.4 0.00 0.00 0.00 68 1017.4
20260506223113 19 34 20.9 27.4 0.00 0.00 0.00 67 1017.5
20260506222607 18 36 16.1 25.7 0.00 0.00 0.00 67 1017.5
20260506222524 18 36 16.1 25.7 0.00 0.00 0.00 67 1017.5
20260506222019 18 36 17.7 24.1 0.00 0.00 0.00 67 1017.6
20260506221604 19 36 16.1 29.0 0.00 0.00 0.00 66 1017.6
20260506221017 18 34 16.1 29.0 0.00 0.00 0.00 67 1017.6
20260506220513 18 35 19.3 27.4 0.00 0.00 0.00 67 1017.7
20260506220057 19 35 12.9 29.0 0.00 0.00 0.00 67 1017.7
20260506215531 19 37 14.5 29.0 0.00 0.00 0.00 67 1017.7
20260506215049 20 35 12.9 24.1 0.00 0.00 0.00 66 1017.7
20260506214552 19 36 16.1 30.6 0.00 0.00 0.00 66 1017.8
20260506214026 19 35 19.3 30.6 0.00 0.00 0.00 66 1017.9
20260506213601 19 35 19.3 30.6 0.00 0.00 0.00 66 1017.9
20260506213021 19 34 16.1 27.4 0.00 0.00 0.00 65 1017.9
20260506212517 20 36 16.1 25.7 0.00 0.00 0.00 66 1018.0
20260506212112 19 32 14.5 27.4 0.00 0.00 0.00 67 1018.0
20260506211532 19 34 20.9 27.4 0.00 0.00 0.00 65 1018.0
20260506211048 19 34 16.1 27.4 0.00 0.00 0.00 65 1018.1
20260506210523 20 36 17.7 27.4 0.00 0.00 0.00 64 1018.1
20260506210024 19 35 12.9 25.7 0.00 0.00 0.00 66 1018.0
20260506205519 20 35 11.3 25.7 0.00 0.00 0.00 65 1018.1
20260506205055 19 34 16.1 27.4 0.00 0.00 0.00 64 1018.2
20260506204537 18 37 20.9 27.4 0.00 0.00 0.00 65 1018.2
20260506204052 20 36 11.3 24.1 0.00 0.00 0.00 63 1018.2
20260506203607 19 34 14.5 24.1 0.00 0.00 0.00 65 1018.2
20260506203524 19 34 14.5 24.1 0.00 0.00 0.00 65 1018.2
20260506203108 20 36 14.5 22.5 0.00 0.00 0.00 63 1018.3
20260506202521 19 34 12.9 33.8 0.00 0.00 0.00 65 1018.3
20260506202038 19 35 16.1 27.4 0.00 0.00 0.00 64 1018.3
20260506201540 18 37 16.1 24.1 0.00 0.00 0.00 65 1018.4
20260506201034 18 35 16.1 25.7 0.00 0.00 0.00 65 1018.4
20260506200548 19 32 14.5 25.7 0.00 0.00 0.00 64 1018.4
20260506200111 19 36 17.7 25.7 0.00 0.00 0.00 64 1018.4
20260506200029 19 36 17.7 25.7 0.00 0.00 0.00 64 1018.4
20260506195524 19 35 16.1 25.7 0.00 0.00 0.00 64 1018.5
20260506195039 18 36 17.7 25.7 0.00 0.00 0.00 63 1018.6
20260506194541 19 34 17.7 25.7 0.00 0.00 0.00 62 1018.6
20260506194015 20 35 16.1 25.7 0.00 0.00 0.00 62 1018.6
20260506193512 20 34 12.9 22.5 0.00 0.00 0.00 61 1018.7
20260506193016 20 34 16.1 22.5 0.00 0.00 0.00 61 1018.7
20260506192553 20 36 12.9 20.9 0.00 0.00 0.00 61 1018.8
20260506192107 20 32 12.9 22.5 0.00 0.00 0.00 60 1018.7
20260506191546 20 35 12.9 22.5 0.00 0.00 0.00 59 1018.7
20260506191021 20 36 14.5 22.5 0.00 0.00 0.00 59 1018.8
20260506190516 20 34 11.3 20.9 0.00 0.00 0.00 59 1018.7
20260506190101 20 36 9.7 20.9 0.00 0.00 0.00 59 1018.8
20260506185513 20 34 9.7 20.9 0.00 0.00 0.00 61 1018.8
20260506185028 19 34 16.1 20.9 0.00 0.00 0.00 60 1019.0
20260506184530 20 38 3.2 16.1 0.00 0.00 0.00 58 1018.9
20260506184045 19 34 9.7 20.9 0.00 0.00 0.00 59 1019.0
20260506183539 20 35 9.7 20.9 0.00 0.00 0.00 58 1019.0
20260506183113 19 37 4.8 19.3 0.00 0.00 0.00 59 1019.1
20260506182607 19 32 4.8 19.3 0.00 0.00 0.00 58 1019.1
20260506182524 19 32 4.8 19.3 0.00 0.00 0.00 58 1019.1
20260506182041 20 36 6.4 16.1 0.00 0.00 0.00 57 1019.1
20260506181605 20 35 6.4 16.1 0.00 0.00 0.00 57 1019.2
20260506181523 20 35 6.4 16.1 0.00 0.00 0.00 57 1019.2
20260506181039 20 32 4.8 19.3 0.00 0.00 0.00 58 1019.3
20260506180555 18 34 12.9 20.9 0.00 0.00 0.00 59 1019.3
20260506180512 18 34 12.9 20.9 0.00 0.00 0.00 59 1019.3
20260506180012 18 34 6.4 20.9 0.00 0.00 0.00 60 1019.3
20260506175528 18 34 11.3 16.1 0.00 0.00 0.00 60 1019.4
20260506175024 18 32 1.6 11.3 0.00 0.00 0.00 62 1019.4
20260506174547 18 36 6.4 16.1 0.00 0.00 0.00 62 1019.5
20260506174102 18 34 6.4 17.7 0.00 0.00 0.00 62 1019.5
20260506173534 18 36 9.7 17.7 0.00 0.00 0.00 62 1019.5
20260506173034 18 36 6.4 19.3 0.00 0.00 0.00 62 1019.5
20260506172549 17 34 12.9 19.3 0.00 0.00 0.00 63 1019.6
20260506172023 17 35 1.6 12.9 0.00 0.00 0.00 64 1019.6
20260506171547 17 34 6.4 12.9 0.00 0.00 0.00 63 1019.7
20260506171041 17 35 4.8 16.1 0.00 0.00 0.00 65 1019.7
20260506170515 17 36 9.7 16.1 0.00 0.00 0.00 65 1019.6
20260506170059 17 35 4.8 16.1 0.00 0.00 0.00 67 1019.7
20260506170017 17 35 4.8 16.1 0.00 0.00 0.00 67 1019.7
20260506165533 17 35 4.8 16.1 0.00 0.00 0.00 66 1019.7
20260506165105 17 34 6.4 16.1 0.00 0.00 0.00 67 1019.8
20260506165022 17 34 6.4 16.1 0.00 0.00 0.00 67 1019.8
20260506164528 16 35 4.8 11.3 0.00 0.00 0.00 66 1019.7
20260506164044 16 36 4.8 16.1 0.00 0.00 0.00 68 1019.8
20260506163519 17 37 8.0 14.5 0.00 0.00 0.00 68 1019.8
20260506163041 16 38 1.6 11.3 0.00 0.00 0.00 68 1019.8
20260506162615 16 36 4.8 11.3 0.00 0.00 0.00 70 1019.8
20260506162047 16 35 3.2 9.7 0.00 0.00 0.00 69 1019.7
20260506161607 16 37 6.4 11.3 0.00 0.00 0.00 69 1019.7
20260506161524 16 37 6.4 11.3 0.00 0.00 0.00 69 1019.7
20260506161100 16 36 4.8 12.9 0.00 0.00 0.00 69 1019.7
20260506161017 16 36 4.8 12.9 0.00 0.00 0.00 69 1019.7
20260506160612 16 35 6.4 12.9 0.00 0.00 0.00 72 1019.7
20260506160530 16 35 6.4 12.9 0.00 0.00 0.00 72 1019.7
20260506160053 15 38 3.2 4.8 0.00 0.00 0.00 72 1019.7
20260506155547 15 36 0.0 6.4 0.00 0.00 0.00 73 1019.6
20260506155021 15 34 3.2 6.4 0.00 0.00 0.00 74 1019.6
20260506154605 15 36 3.2 6.4 0.00 0.00 0.00 74 1019.6
20260506154523 15 36 3.2 6.4 0.00 0.00 0.00 74 1019.6
20260506154019 15 36 3.2 4.8 0.00 0.00 0.00 74 1019.8
20260506153537 15 35 0.0 4.8 0.00 0.00 0.00 74 1019.7
20260506153018 15 36 0.0 3.2 0.00 0.00 0.00 75 1019.7
20260506152613 15 35 1.6 6.4 0.00 0.00 0.00 75 1019.7
20260506152046 15 34 1.6 6.4 0.00 0.00 0.00 76 1019.6
20260506151547 15 34 1.6 6.4 0.00 0.00 0.00 76 1019.7
20260506151021 15 36 1.6 6.4 0.00 0.00 0.00 77 1019.7
20260506150616 14 38 1.6 6.4 0.00 0.00 0.00 77 1019.7
20260506150016 14 35 3.2 6.4 0.00 0.00 0.00 79 1019.8
20260506145612 13 35 1.6 9.7 0.00 0.00 0.00 79 1019.8
20260506145529 13 35 1.6 9.7 0.00 0.00 0.00 79 1019.8
20260506145046 13 34 3.2 12.9 0.00 0.00 0.00 80 1019.8
20260506144548 13 36 4.8 9.7 0.00 0.00 0.00 80 1019.8
20260506144043 13 38 4.8 12.9 0.00 0.00 0.00 81 1019.7
20260506143517 12 38 4.8 9.7 0.00 0.00 0.00 82 1019.6
20260506143020 12 35 4.8 9.7 0.00 0.00 0.00 82 1019.6
20260506142555 12 35 6.4 11.3 0.00 0.00 0.00 82 1019.5
20260506142031 12 36 6.4 12.9 0.00 0.00 0.00 83 1019.5
20260506141532 12 35 4.8 11.3 0.00 0.00 0.00 84 1019.4
20260506141048 12 34 3.2 9.7 0.00 0.00 0.00 84 1019.4
20260506140602 11 36 4.8 9.7 0.00 0.00 0.00 85 1019.3
20260506140520 11 36 4.8 9.7 0.00 0.00 0.00 85 1019.3
20260506140105 11 38 3.2 9.7 0.00 0.00 0.00 85 1019.4
20260506135558 11 36 3.2 9.7 0.00 0.03 0.00 86 1019.3
20260506135516 11 36 3.2 9.7 0.00 0.03 0.00 86 1019.3
20260506135031 11 35 6.4 9.7 0.00 0.03 0.00 86 1019.3
20260506134536 11 38 6.4 9.7 0.00 0.03 0.00 86 1019.3
20260506134050 11 35 6.4 12.9 0.00 0.03 0.00 86 1019.3
20260506133604 11 34 6.4 12.9 0.00 0.03 0.00 86 1019.2
20260506133522 11 34 6.4 12.9 0.00 0.03 0.00 86 1019.2
20260506133025 11 35 6.4 9.7 0.00 0.03 0.00 86 1019.2
20260506132521 11 32 6.4 11.3 0.00 0.03 0.00 86 1019.1
20260506132037 11 32 4.8 9.7 0.00 0.03 0.00 86 1019.1
20260506131601 11 36 4.8 9.7 0.00 0.03 0.00 86 1019.1
20260506131054 11 35 4.8 9.7 0.00 0.03 0.00 86 1019.0
20260506130608 11 34 4.8 9.7 0.00 0.03 0.00 86 1018.9
20260506130525 11 34 4.8 9.7 0.00 0.03 0.00 86 1018.9
20260506130047 11 36 6.4 9.7 0.00 0.03 0.00 86 1018.9
20260506125602 11 38 6.4 12.9 0.00 0.13 0.00 86 1018.9
20260506125519 11 38 6.4 12.9 0.00 0.13 0.00 86 1018.9
20260506125036 11 37 8.0 12.9 0.00 0.13 0.00 86 1018.8
20260506124557 11 34 8.0 12.9 0.00 0.13 0.00 86 1018.9
20260506124107 11 36 6.4 12.9 0.00 0.13 0.00 86 1018.8
20260506123546 11 38 6.4 12.9 0.00 0.13 0.00 86 1018.7
20260506123106 11 36 6.4 12.9 0.00 0.13 0.00 86 1018.7
20260506123024 11 36 6.4 12.9 0.00 0.13 0.00 86 1018.7
20260506122539 11 35 4.8 8.0 0.00 0.13 0.00 86 1018.7
20260506122113 11 38 4.8 8.0 0.00 0.13 0.00 85 1018.7
20260506121532 11 35 4.8 8.0 0.00 0.13 0.00 85 1018.6
20260506121108 11 35 3.2 8.0 0.00 0.13 0.00 85 1018.7
20260506120541 11 37 4.8 8.0 0.00 0.13 0.00 85 1018.7
20260506120022 12 37 3.2 6.4 0.00 0.13 0.00 85 1018.7
20260506115538 12 37 3.2 4.8 0.00 0.20 0.00 86 1018.7
20260506115111 11 36 3.2 4.8 0.00 0.20 0.00 86 1018.7
20260506114551 11 36 0.0 0.0 0.00 0.20 0.00 86 1018.6
20260506114025 11 34 0.0 3.2 0.00 0.20 0.00 86 1018.6
20260506113541 11 37 0.0 4.8 0.00 0.20 0.00 85 1018.6
20260506113105 11 38 1.6 6.4 0.00 0.20 0.00 85 1018.6
20260506112518 12 36 3.2 6.4 0.00 0.20 0.00 85 1018.6
20260506112014 12 38 1.6 4.8 0.00 0.20 0.00 84 1018.6
20260506111517 12 36 3.2 6.4 0.00 0.20 0.00 84 1018.6
20260506111112 12 38 3.2 6.4 0.00 0.20 0.00 84 1018.6
20260506110545 12 35 3.2 4.8 0.00 0.20 0.00 84 1018.6
20260506110109 12 34 3.2 4.8 0.00 0.20 0.00 84 1018.6